User: anonymous   Login
Location: Newark
(49.1000°N, 0.4667°W)
Time: 21:18:31
(UTC+00:00)
Language:

PRISM - Orbit

View from above orbital plane
View from above orbital plane
View from above satellite
View from above satellite

Ground track
Ground track

The orbit data is extracted from the following two-line orbital elements,

1 33493U 09002B   20184.82715665 +.00000132 +00000-0 +16997-4 0  9990
2 33493 098.1446 125.7571 0015306 008.9539 351.1951 14.97057584622008
Epoch (UTC): 02 July 2020 19:51:06
Eccentricity: 0.0015306
inclination: 98.1446°
perigee height: 565 km
apogee height: 586 km
right ascension of ascending node: 125.7571°
argument of perigee: 8.9539°
revolutions per day: 14.97057584
mean anomaly at epoch: 351.1951°
orbit number at epoch: 62200

The dashed part of the orbit path shows where the satellite is in the earth's shadow,  

DLR